Regional Weather Roundup
Issued by NWS

Home | Current Version | Previous Version | Graphics & Text | Print | Product List | Glossary On
Versions: 1 2 3 4 5 6 7 8 9 10 11 12 13 14 15 16 17 18 19 20 21 22 23 24 25 26 27 28 29 30 31 32 33 34 35 36 37 38 39 40 41 42 43 44 45 46 47 48 49 50
000
ASUS45 KBOU 280910
RWRCO

WEATHER ROUNDUP FOR COLORADO
NATIONAL WEATHER SERVICE DENVER/BOULDER CO
300 AM MDT TUE JUL 28 2015

NOTE: "FAIR" INDICATES FEW OR NO CLOUDS BELOW 12000 FEET WITH NO
SIGNIFICANT WEATHER AND/OR OBSTRUCTIONS TO VISIBILITY.

COZ001>005-013-030-031-281000-
...NORTHWEST COLORADO...

CITY           SKY/WX    TMP DP  RH WIND       PRES   REMARKS
CRAIG          CLEAR     44  33  65 SW3       30.24R
HAYDEN         NOT AVBL
MEEKER         CLEAR     53  34  48 CALM      30.22S
MOUNT WERNER   NOT AVBL
STEAMBOAT SPGS CLEAR     48  35  60 CALM      30.25R
WALDEN         CLEAR     36  30  80 SE6       30.29R
$$

COZ006>008-011-281000-
...WEST CENTRAL VALLEYS...

CITY           SKY/WX    TMP DP  RH WIND       PRES   REMARKS
GRAND JUNCTION CLEAR     63  30  28 NE7       30.06R
MONTROSE       CLEAR     61  34  36 SE5       30.12R
EAGLE          CLEAR     55  34  44 E5        30.22R
RIFLE          CLEAR     57  35  43 E3        30.13R
DELTA          CLEAR     59  31  35 N3        30.07R
NUCLA          CLEAR     59  30  33 SE9       30.15R
$$

COZ017>023-064>068-281000-
...SOUTHWEST COLORADO...

CITY           SKY/WX    TMP DP  RH WIND       PRES   REMARKS
DURANGO        CLEAR     55  35  47 CALM      30.17R
CORTEZ         CLEAR     48  38  68 E3        30.13R
PAGOSA SPRINGS CLEAR     51  38  62 CALM      30.26R
TELLURIDE      CLEAR     53  33  46 SE6       30.38S
WOLF CREEK PAS NOT AVBL
$$

COZ009-010-012-014-032>034-037-058>063-281000-
...CENTRAL COLORADO...

CITY           SKY/WX    TMP DP  RH WIND       PRES   REMARKS
ASPEN          CLEAR     48  36  63 S7        30.25S
BUENA VISTA    CLEAR     51  28  41 CALM      30.24R
COPPER MTN     CLEAR     54  21  28 SW13G23   30.53R
BERTHOUD PASS  FAIR      39  32  75 W25G36    30.52S
COTTONWOOD PAS CLEAR     61  18  18 S3        30.38R
GUNNISON       NOT AVBL
KREMMLING      CLEAR     52  30  43 CALM      30.27R
LEADVILLE      CLEAR     43  27  53 E7        30.37S
MONARCH PASS   CLEAR     46  27  46 W25G36    30.63R
SALIDA         CLEAR     60  31  32 SW5       30.27S
SUNLIGHT       CLEAR     50  28  43 W3        30.47S
WILKERSON PASS CLEAR     52  21  30 SW13G22   30.48F
$$

COZ069>075-281000-
...SAN LUIS VALLEY/SANGRE DE CRISTO MOUNTAINS...

CITY           SKY/WX    TMP DP  RH WIND       PRES   REMARKS
ALAMOSA        CLEAR     49  40  71 S3        30.22S
LA VETA PASS   CLEAR     54  36  50 MISG      30.40S
SAGUACHE       CLEAR     54  37  54 NW12      30.25S
$$

COZ035-036-038>040-281000-
...NORTHERN COLORADO FRONT RANGE...

CITY           SKY/WX    TMP DP  RH WIND       PRES   REMARKS
DENVER INTL AP CLEAR     60  39  45 E8        30.02R
DMNS CITY PARK   N/A     65  39  38 E12G17    30.01R
AURORA         PTCLDY    62  40  45 E9        30.05R
FRONT RANGE AP NOT AVBL
ERIE MUNI ARPT CLEAR     60  42  50 SE7       30.00R
BOULDER MUN AP CLEAR     68  37  32 CALM      30.00R
CENTENNIAL     CLEAR     65  38  36 E9        30.06R
BROOMFIELD     CLEAR     68  37  32 NE3       30.04R
FORT COLLINS   CLEAR     68  37  32 NW10      29.98R
LONGMONT       CLEAR     59  45  60 S3        30.00R
$$

COZ041-046-047-076>085-087-088-281000-
...PIKES PEAK/PALMER DIVIDE AND SOUTHERN FOOTHILLS...

CITY           SKY/WX    TMP DP  RH WIND       PRES   REMARKS
COLO. SPRINGS  PTCLDY    74  28  18 NW13      30.05R
A. F. ACADEMY  CLEAR     70  25  19 VRB5      30.08R
ELLICOTT       CLEAR    N/A N/A N/A N9        30.05R
FALCON         CLEAR     70  27  20 NW10      30.12R
FORT CARSON    CLEAR     72  35  25 VRB3      30.01R
LIMON          CLEAR     64  42  44 N16       30.03R
MONUMENT HILL  CLEAR     57  32  38 NW5       30.14R
TRINIDAD       CLEAR     65  46  50 NW7       30.04S
$$

COZ042>045-048>051-090-091-281000-
...NORTHEAST COLORADO...

CITY           SKY/WX    TMP DP  RH WIND       PRES   REMARKS
GREELEY ARPT   CLEAR     66  36  32 N20       29.97R
AKRON            N/A    N/A N/A N/A MISG      29.98R
BURLINGTON     CLEAR     69  60  73 W10       29.92R
WRAY           CLEAR     75  54  47 N18G28    29.87R
STERLING       NOT AVBL
HOLYOKE        CLEAR     73  48  40 N23G29    29.89R
FORT MORGAN    CLEAR     66  33  29 N16G22    29.98R
$$

COZ086-089-092>099-281000-
...SOUTHEAST COLORADO...

CITY           SKY/WX    TMP DP  RH WIND       PRES   REMARKS
PUEBLO         CLEAR     67  42  40 W6        29.93R
LA JUNTA       PTCLDY    69  54  58 W13       29.90R
LAMAR          PTCLDY    80  55  42 SW17      29.82S
SPRINGFIELD      N/A     70  59  68 SW10      29.94S
$$



USA.gov is the U.S. government's official web portal to all federal, state and local government web resources and services.